KJ4AJP Weather Reports


Display with metric or nautical units.
time (UTC)temp
F
wind
direction
speed
MPH
gust
MPH
rain 1hr
in
rain 24hr
in
rain mn
in
humidity
%
barometer
mb
20260509185623 80 2 1.0 2.0 0.00 0.00 0.00 40 1010.8
20260509185119 79 38 0.0 1.0 0.00 0.00 0.00 46 1011.0
20260509184618 80 321 3.0 3.0 0.00 0.00 0.00 43 1011.0
20260509184114 79 21 1.0 1.0 0.00 0.00 0.00 45 1011.1
20260509183610 79 76 1.0 1.0 0.00 0.00 0.00 44 1010.9
20260509183105 79 105 2.0 2.0 0.00 0.00 0.00 44 1010.9
20260509182602 79 313 2.0 2.0 0.00 0.00 0.00 44 1011.0
20260509182059 79 198 2.0 2.0 0.00 0.00 0.00 47 1010.8
20260509181557 79 354 1.0 2.0 0.00 0.00 0.00 46 1011.0
20260509181054 79 85 1.0 1.0 0.00 0.00 0.00 44 1010.9
20260509180550 79 56 1.0 2.0 0.00 0.00 0.00 49 1010.9
20260509180047 78 33 0.0 1.0 0.00 0.00 0.00 48 1010.9
20260509175542 79 268 2.0 2.0 0.00 0.00 0.00 47 1011.0
20260509175040 79 57 0.0 0.0 0.00 0.00 0.00 49 1010.9
20260509174536 79 80 1.0 1.0 0.00 0.00 0.00 49 1010.9
20260509174032 78 346 3.0 3.0 0.00 0.00 0.00 50 1010.9
20260509173526 79 71 0.0 1.0 0.00 0.00 0.00 53 1011.1
20260509173023 79 45 0.0 0.0 0.00 0.00 0.00 55 1011.2
20260509172520 79 44 1.0 1.0 0.00 0.00 0.00 52 1011.0
20260509172015 78 43 0.0 1.0 0.00 0.00 0.00 55 1010.9
20260509171512 78 44 1.0 1.0 0.00 0.00 0.00 56 1011.2
20260509171009 77 33 0.0 1.0 0.00 0.00 0.00 57 1011.1
20260509170504 78 60 0.0 1.0 0.00 0.00 0.00 52 1011.1
20260509165959 78 58 1.0 1.0 0.00 0.00 0.00 53 1011.1
20260509165458 77 69 0.0 1.0 0.00 0.00 0.00 56 1011.2
20260509164955 77 40 1.0 1.0 0.00 0.00 0.00 55 1011.1
20260509164450 76 41 1.0 1.0 0.00 0.00 0.00 58 1011.1
20260509163947 76 40 1.0 2.0 0.00 0.00 0.00 58 1011.0
20260509163444 76 74 2.0 2.0 0.00 0.00 0.00 54 1011.0
20260509162943 76 107 1.0 2.0 0.00 0.00 0.00 56 1010.7
20260509162443 75 61 1.0 1.0 0.00 0.00 0.00 55 1011.2
20260509161938 74 56 0.0 0.0 0.00 0.00 0.00 60 1010.8
20260509161434 75 275 3.0 3.0 0.00 0.00 0.00 55 1011.0
20260509160930 77 44 1.0 1.0 0.00 0.00 0.00 55 1011.0
20260509160426 76 59 0.0 1.0 0.00 0.00 0.00 54 1011.0
20260509155921 76 73 1.0 1.0 0.00 0.00 0.00 56 1010.9
20260509155418 75 51 0.0 0.0 0.00 0.00 0.00 57 1011.2
20260509154915 76 44 0.0 1.0 0.00 0.00 0.00 58 1011.1
20260509154411 75 75 1.0 1.0 0.00 0.00 0.00 60 1011.0
20260509153908 74 48 1.0 1.0 0.00 0.00 0.00 59 1011.0
20260509153405 74 80 2.0 2.0 0.00 0.00 0.00 63 1010.9
20260509152902 73 23 3.0 6.0 0.00 0.00 0.00 64 1010.9
20260509152358 72 37 1.0 1.0 0.00 0.00 0.00 66 1010.8
20260509151855 73 255 5.0 6.0 0.00 0.00 0.00 63 1010.9
20260509151351 73 42 0.0 1.0 0.00 0.00 0.00 61 1010.9
20260509150849 73 58 0.0 0.0 0.00 0.00 0.00 62 1010.8
20260509150347 73 50 1.0 1.0 0.00 0.00 0.00 63 1010.8
20260509145844 72 133 1.0 2.0 0.00 0.00 0.00 65 1010.7
20260509145338 71 188 3.0 4.0 0.00 0.00 0.00 65 1010.7
20260509144835 71 236 1.0 1.0 0.00 0.00 0.00 67 1010.9
20260509144332 71 38 1.0 1.0 0.00 0.00 0.00 64 1010.9
20260509143829 71 61 0.0 1.0 0.00 0.00 0.00 67 1010.8
20260509143327 70 44 1.0 1.0 0.00 0.00 0.00 69 1010.7
20260509142823 69 67 0.0 0.0 0.00 0.00 0.00 72 1010.8
20260509142319 68 55 0.0 0.0 0.00 0.00 0.00 73 1010.7
20260509141814 68 185 2.0 3.0 0.00 0.00 0.00 73 1010.5
20260509141312 67 210 2.0 2.0 0.00 0.00 0.00 74 1010.6
20260509140808 67 18 1.0 1.0 0.00 0.00 0.00 74 1010.7
20260509140305 66 215 2.0 3.0 0.00 0.00 0.00 76 1010.5
20260509135803 65 323 2.0 2.0 0.00 0.00 0.00 78 1010.5
20260509135300 65 6 2.0 2.0 0.00 0.00 0.00 78 1010.5
20260509134758 65 293 2.0 3.0 0.00 0.00 0.00 79 1010.6
20260509134255 64 359 2.0 3.0 0.00 0.00 0.00 80 1010.5
20260509133752 64 69 1.0 2.0 0.00 0.00 0.00 83 1010.5
20260509133248 64 215 3.0 3.0 0.00 0.00 0.00 82 1010.3
20260509132747 63 195 2.0 3.0 0.00 0.00 0.00 83 1010.3
20260509132246 63 22 2.0 2.0 0.00 0.00 0.00 83 1010.3
20260509131742 62 32 1.0 1.0 0.00 0.00 0.00 85 1010.3
20260509131238 62 39 1.0 1.0 0.00 0.00 0.00 85 1009.9
20260509130735 62 19 1.0 2.0 0.00 0.00 0.00 85 1010.1
20260509130230 61 299 1.0 1.0 0.00 0.00 0.00 87 1010.1
20260509125727 61 64 1.0 1.0 0.00 0.00 0.00 87 1010.0
20260509125224 61 27 0.0 0.0 0.00 0.00 0.00 87 1010.2
20260509124720 60 63 0.0 0.0 0.00 0.00 0.00 88 1010.3
20260509124217 60 70 0.0 1.0 0.00 0.00 0.00 89 1010.0
20260509123716 59 43 0.0 1.0 0.00 0.00 0.00 91 1009.9
20260509123212 59 44 0.0 1.0 0.00 0.00 0.00 93 1010.0
20260509122708 58 60 0.0 0.0 0.00 0.00 0.00 94 1009.9
20260509122205 57 63 0.0 0.0 0.00 0.00 0.00 97 1009.9
20260509121702 57 49 0.0 0.0 0.00 0.00 0.00 98 1009.8
20260509121159 56 48 0.0 0.0 0.00 0.00 0.00 98 1009.9
20260509120657 55 50 0.0 0.0 0.00 0.00 0.00 98 1009.8
20260509120155 55 56 0.0 0.0 0.00 0.00 0.00 98 1009.8
20260509115652 55 45 0.0 0.0 0.00 0.00 0.00 98 1009.7
20260509115150 54 45 0.0 0.0 0.00 0.00 0.00 98 1009.6
20260509114648 54 46 0.0 0.0 0.00 0.00 0.00 98 1009.4
20260509114147 54 46 0.0 0.0 0.00 0.00 0.00 97 1009.4
20260509113644 53 46 0.0 0.0 0.00 0.00 0.00 97 1009.2
20260509113141 53 46 0.0 0.0 0.00 0.00 0.00 97 1009.4
20260509112638 53 46 0.0 0.0 0.00 0.00 0.00 97 1009.5
20260509112135 53 46 0.0 0.0 0.00 0.00 0.00 97 1009.1
20260509111632 53 46 0.0 0.0 0.00 0.00 0.00 97 1009.1
20260509111129 53 46 0.0 0.0 0.00 0.00 0.00 97 1008.9
20260509110626 53 46 0.0 0.0 0.00 0.00 0.00 97 1008.9
20260509110123 53 46 0.0 0.0 0.00 0.00 0.00 97 1008.9
20260509105621 53 46 0.0 0.0 0.00 0.00 0.00 97 1009.0
20260509105119 53 46 0.0 0.0 0.00 0.00 0.00 96 1008.9
20260509104615 53 46 0.0 0.0 0.00 0.00 0.00 96 1008.8
20260509104112 53 46 0.0 0.0 0.00 0.00 0.00 96 1008.6
20260509103610 53 46 0.0 0.0 0.00 0.00 0.00 96 1008.5
20260509103108 53 46 0.0 0.0 0.00 0.00 0.00 96 1008.6
20260509102605 53 46 0.0 0.0 0.00 0.00 0.00 95 1008.7
20260509102102 54 46 0.0 0.0 0.00 0.00 0.00 95 1008.6
20260509101558 54 46 0.0 0.0 0.00 0.00 0.00 95 1008.8
20260509101055 54 46 0.0 0.0 0.00 0.00 0.00 94 1008.8
20260509100552 54 46 0.0 0.0 0.00 0.00 0.00 94 1008.8
20260509100049 54 46 0.0 0.0 0.00 0.00 0.00 94 1008.9
20260509095546 54 46 0.0 0.0 0.00 0.00 0.00 94 1008.9
20260509095044 55 46 0.0 0.0 0.00 0.00 0.00 93 1008.9
20260509094539 55 46 0.0 0.0 0.00 0.00 0.00 93 1008.9
20260509094037 55 46 0.0 0.0 0.00 0.00 0.00 92 1008.9
20260509093535 55 46 0.0 0.0 0.00 0.00 0.00 91 1008.9
20260509093032 56 46 0.0 0.0 0.00 0.00 0.00 91 1008.7
20260509092530 56 46 0.0 0.0 0.00 0.00 0.00 90 1009.1
20260509092029 56 46 0.0 0.0 0.00 0.00 0.00 89 1008.8
20260509091525 57 46 0.0 0.0 0.00 0.00 0.00 89 1009.0
20260509091022 57 45 0.0 0.0 0.00 0.00 0.00 88 1009.0
20260509090519 57 45 0.0 0.0 0.00 0.00 0.00 88 1008.8
20260509090017 57 46 0.0 0.0 0.00 0.00 0.00 87 1008.8
20260509085514 57 56 0.0 0.0 0.00 0.00 0.00 87 1008.4
20260509085010 58 27 1.0 1.0 0.00 0.00 0.00 86 1008.4
20260509084507 58 43 0.0 1.0 0.00 0.00 0.00 86 1008.4
20260509084004 58 76 1.0 2.0 0.00 0.00 0.00 86 1008.4
20260509083501 58 127 0.0 1.0 0.00 0.00 0.00 85 1008.5
20260509082958 58 56 0.0 0.0 0.00 0.00 0.00 85 1008.6
20260509082455 58 63 0.0 0.0 0.00 0.00 0.00 84 1008.5
20260509081952 58 81 1.0 1.0 0.00 0.00 0.00 84 1008.5
20260509081450 59 69 0.0 1.0 0.00 0.00 0.00 84 1008.5
20260509080946 59 57 0.0 0.0 0.00 0.00 0.00 83 1008.6
20260509080445 59 61 0.0 0.0 0.00 0.00 0.00 83 1008.6
20260509075942 59 47 0.0 0.0 0.00 0.00 0.00 82 1008.4
20260509075439 59 61 0.0 0.0 0.00 0.00 0.00 81 1008.5
20260509074937 60 66 0.0 1.0 0.00 0.00 0.00 81 1008.4
20260509074434 60 46 0.0 1.0 0.00 0.00 0.00 80 1008.6
20260509073930 60 59 0.0 0.0 0.00 0.00 0.00 79 1008.5
20260509073427 61 54 0.0 0.0 0.00 0.00 0.00 79 1008.7
20260509072924 61 17 1.0 2.0 0.00 0.00 0.00 78 1008.8
20260509072421 61 43 1.0 1.0 0.00 0.00 0.00 78 1008.7
20260509071917 61 42 1.0 1.0 0.00 0.00 0.00 78 1008.7
20260509071414 61 54 0.0 1.0 0.00 0.00 0.00 78 1008.9
20260509070912 61 281 4.0 6.0 0.00 0.00 0.00 77 1009.0
20260509070408 61 80 1.0 1.0 0.00 0.00 0.00 77 1009.0
20260509065904 61 43 0.0 0.0 0.00 0.00 0.00 78 1008.9
20260509065400 61 67 2.0 2.0 0.00 0.00 0.00 77 1009.0
20260509064856 61 21 1.0 1.0 0.00 0.00 0.00 77 1009.1
20260509064354 61 100 1.0 1.0 0.00 0.00 0.00 77 1009.1
20260509063852 61 50 1.0 1.0 0.00 0.00 0.00 77 1009.0
20260509063348 61 47 1.0 1.0 0.00 0.00 0.00 77 1009.0
20260509062845 61 35 1.0 2.0 0.00 0.00 0.00 77 1008.9
20260509062342 61 107 1.0 1.0 0.00 0.00 0.00 77 1009.0
20260509061839 61 42 1.0 2.0 0.00 0.00 0.00 77 1008.9
20260509061338 61 8 1.0 1.0 0.00 0.00 0.00 76 1008.8
20260509060834 61 10 2.0 2.0 0.00 0.00 0.00 76 1008.9
20260509060331 61 280 2.0 4.0 0.00 0.00 0.00 76 1008.9
20260509055826 61 35 0.0 1.0 0.00 0.00 0.00 76 1009.1
20260509055322 61 177 2.0 3.0 0.00 0.00 0.00 76 1008.9
20260509054819 60 47 1.0 1.0 0.00 0.00 0.00 76 1009.1
20260509054316 60 62 0.0 0.0 0.00 0.00 0.00 77 1009.1
20260509053814 60 83 1.0 1.0 0.00 0.00 0.00 77 1009.5
20260509053311 60 58 0.0 1.0 0.00 0.00 0.00 77 1009.9
20260509052809 60 45 0.0 0.0 0.00 0.00 0.00 76 1009.9
20260509052307 60 100 1.0 1.0 0.00 0.00 0.00 76 1009.6
20260509051804 60 52 0.0 0.0 0.00 0.00 0.00 76 1009.7
20260509051302 60 64 0.0 0.0 0.00 0.00 0.00 75 1009.7
20260509050758 60 51 0.0 0.0 0.00 0.00 0.00 75 1009.7
20260509050255 60 42 0.0 1.0 0.00 0.00 0.00 75 1010.0
20260509045752 59 38 0.0 1.0 0.00 0.00 0.00 76 1009.9
20260509045249 59 63 0.0 0.0 0.00 0.00 0.00 77 1009.8
20260509044746 59 67 0.0 0.0 0.00 0.00 0.00 77 1009.9
20260509044244 59 66 0.0 0.0 0.00 0.00 0.00 77 1010.1
20260509043740 60 64 0.0 0.0 0.00 0.00 0.00 76 1010.0
20260509043236 60 65 0.0 0.0 0.00 0.00 0.00 75 1009.9
20260509042732 60 55 0.0 0.0 0.00 0.00 0.00 74 1009.8
20260509042228 60 59 0.0 0.0 0.00 0.00 0.00 74 1010.0
20260509041725 60 53 0.0 0.0 0.00 0.00 0.00 74 1010.1
20260509041222 60 67 0.0 0.0 0.00 0.00 0.00 73 1010.1
20260509040721 60 52 0.0 0.0 0.00 0.00 0.00 72 1010.2
20260509040217 60 33 1.0 1.0 0.00 0.00 0.00 72 1010.1
20260509035714 60 87 0.0 1.0 0.00 0.00 0.00 72 1010.2
20260509035211 60 46 0.0 0.0 0.00 0.00 0.00 72 1009.9
20260509034708 60 39 0.0 0.0 0.00 0.00 0.00 72 1010.1
20260509034206 60 63 0.0 0.0 0.00 0.00 0.00 72 1009.9
20260509033702 60 65 0.0 0.0 0.00 0.00 0.00 71 1009.8
20260509033159 60 59 0.0 0.0 0.00 0.00 0.00 71 1009.7
20260509032657 60 52 0.0 0.0 0.00 0.00 0.00 71 1009.8
20260509032153 60 65 0.0 0.0 0.00 0.00 0.00 71 1009.7
20260509031651 60 50 0.0 0.0 0.00 0.00 0.00 70 1009.8
20260509031148 60 56 0.0 0.0 0.00 0.00 0.00 70 1009.8
20260509030647 60 60 0.0 0.0 0.00 0.00 0.00 70 1009.6
20260509030144 60 60 0.0 0.0 0.00 0.00 0.00 71 1009.9
20260509025639 60 60 0.0 0.0 0.00 0.00 0.00 70 1009.9
20260509025135 59 61 0.0 0.0 0.00 0.00 0.00 71 1010.0
20260509024630 59 61 0.0 0.0 0.00 0.00 0.00 71 1009.7
20260509024127 59 60 0.0 0.0 0.00 0.00 0.00 71 1009.6
20260509023625 60 60 0.0 0.0 0.00 0.00 0.00 70 1009.6
20260509023121 60 60 0.0 0.0 0.00 0.00 0.00 69 1009.7
20260509022618 60 60 0.0 0.0 0.00 0.00 0.00 69 1009.5
20260509022116 60 60 0.0 0.0 0.00 0.00 0.00 69 1009.5
20260509021613 61 60 0.0 0.0 0.00 0.00 0.00 69 1009.3
20260509021110 60 61 0.0 0.0 0.00 0.00 0.00 68 1009.5
20260509020608 60 61 0.0 0.0 0.00 0.00 0.00 69 1009.5
20260509020104 60 61 0.0 0.0 0.00 0.00 0.00 69 1009.4
20260509015604 60 60 0.0 0.0 0.00 0.00 0.00 69 1009.5
20260509015100 60 60 0.0 0.0 0.00 0.00 0.00 71 1009.6
20260509014557 60 60 0.0 0.0 0.00 0.00 0.00 70 1009.5
20260509014053 60 60 0.0 0.0 0.00 0.00 0.00 71 1009.7
20260509013550 60 60 0.0 0.0 0.00 0.00 0.00 70 1009.8
20260509013045 61 60 0.0 0.0 0.00 0.00 0.00 68 1009.7
20260509012543 62 60 0.0 0.0 0.00 0.00 0.00 67 1009.6
20260509012040 62 60 0.0 0.0 0.00 0.00 0.00 67 1009.5
20260509011537 62 60 0.0 0.0 0.00 0.00 0.00 66 1009.5
20260509011035 62 60 0.0 0.0 0.00 0.00 0.00 66 1009.5
20260509010532 63 60 0.0 0.0 0.00 0.00 0.00 64 1009.6
20260509010029 64 60 0.0 0.0 0.00 0.00 0.00 63 1009.6
20260509005526 64 60 0.0 0.0 0.00 0.00 0.00 63 1009.7
20260509005026 65 60 0.0 0.0 0.00 0.00 0.00 59 1009.8
20260509004524 66 60 0.0 0.0 0.00 0.00 0.00 58 1009.8
20260509004021 67 60 0.0 0.0 0.00 0.00 0.00 59 1009.8
20260509003519 68 60 0.0 0.0 0.00 0.00 0.00 56 1009.8
20260509003016 68 61 0.0 0.0 0.00 0.00 0.00 53 1009.7
20260509002513 69 60 0.0 0.0 0.00 0.00 0.00 53 1009.7
20260509002010 69 57 0.0 0.0 0.00 0.00 0.00 51 1009.9
20260509001508 70 61 0.0 0.0 0.00 0.00 0.00 49 1009.6
20260509001004 70 42 0.0 0.0 0.00 0.00 0.00 48 1009.8
20260509000502 71 42 0.0 1.0 0.00 0.00 0.00 48 1009.8
20260508235957 71 54 0.0 0.0 0.00 0.00 0.00 47 1009.6
20260508235456 71 53 0.0 0.0 0.00 0.00 0.00 46 1010.0
20260508234952 72 46 0.0 0.0 0.00 0.00 0.00 45 1010.1
20260508234449 72 75 0.0 1.0 0.00 0.00 0.00 45 1009.9
20260508233946 72 29 1.0 1.0 0.00 0.00 0.00 44 1010.0
20260508233446 72 51 0.0 1.0 0.00 0.00 0.00 44 1009.9
20260508232942 73 62 0.0 0.0 0.00 0.00 0.00 44 1010.2
20260508232439 73 48 1.0 1.0 0.00 0.00 0.00 44 1010.1
20260508231936 73 45 0.0 0.0 0.00 0.00 0.00 45 1010.1
20260508231434 73 41 0.0 1.0 0.00 0.00 0.00 43 1010.0
20260508230930 73 279 1.0 2.0 0.00 0.00 0.00 42 1010.2
20260508230427 73 57 0.0 0.0 0.00 0.00 0.00 44 1010.4
20260508225924 73 72 1.0 1.0 0.00 0.00 0.00 42 1010.3
20260508225421 73 290 4.0 4.0 0.00 0.00 0.00 41 1010.5
20260508224918 74 309 1.0 2.0 0.00 0.00 0.00 42 1010.5
20260508224416 74 78 0.0 1.0 0.00 0.00 0.00 43 1010.5
20260508223913 74 17 1.0 1.0 0.00 0.00 0.00 42 1010.5
20260508223411 74 250 2.0 2.0 0.00 0.00 0.00 42 1010.5
20260508222908 74 10 2.0 2.0 0.00 0.00 0.00 41 1010.6
20260508222405 74 55 1.0 2.0 0.00 0.00 0.00 40 1010.4
20260508221901 74 60 0.0 1.0 0.00 0.00 0.00 42 1010.6
20260508221357 74 208 1.0 2.0 0.00 0.00 0.00 42 1010.5
20260508220854 75 17 1.0 1.0 0.00 0.00 0.00 41 1010.5
20260508220350 75 262 2.0 3.0 0.00 0.00 0.00 41 1010.4
20260508215847 76 334 2.0 2.0 0.00 0.00 0.00 39 1010.5
20260508215344 76 173 1.0 3.0 0.00 0.00 0.00 44 1010.5
20260508214840 76 262 2.0 2.0 0.00 0.00 0.00 39 1010.5
20260508214338 76 322 1.0 1.0 0.00 0.00 0.00 39 1010.5
20260508213834 77 161 1.0 1.0 0.00 0.00 0.00 38 1010.6
20260508213331 76 84 2.0 2.0 0.00 0.00 0.00 39 1010.6
20260508212827 76 76 1.0 2.0 0.00 0.00 0.00 40 1010.6
20260508212323 76 54 0.0 1.0 0.00 0.00 0.00 39 1010.6
20260508211819 76 323 5.0 6.0 0.00 0.00 0.00 37 1010.9
20260508211315 76 42 1.0 1.0 0.00 0.00 0.00 39 1010.7
20260508210813 76 319 2.0 3.0 0.00 0.00 0.00 39 1010.8
20260508210309 76 301 2.0 3.0 0.00 0.00 0.00 38 1010.7
20260508205806 76 27 1.0 2.0 0.00 0.00 0.00 39 1011.1
20260508205305 77 292 4.0 6.0 0.00 0.00 0.00 37 1011.0
20260508204759 76 51 0.0 0.0 0.00 0.00 0.00 44 1011.2
20260508204255 76 262 2.0 3.0 0.00 0.00 0.00 41 1011.1
20260508203752 76 163 1.0 1.0 0.00 0.00 0.00 38 1011.1
20260508203248 76 41 2.0 2.0 0.00 0.00 0.00 39 1011.4
20260508202744 76 68 2.0 3.0 0.00 0.00 0.00 36 1011.3
20260508202241 76 95 1.0 2.0 0.00 0.00 0.00 39 1011.5
20260508201738 76 255 2.0 2.0 0.00 0.00 0.00 38 1011.4
20260508201235 76 61 0.0 1.0 0.00 0.00 0.00 38 1011.3
20260508200732 76 19 2.0 3.0 0.00 0.00 0.00 37 1011.5
20260508200228 76 64 2.0 2.0 0.00 0.00 0.00 37 1011.4
20260508195724 75 36 1.0 1.0 0.00 0.00 0.00 41 1011.7
20260508195221 75 51 3.0 4.0 0.00 0.00 0.00 40 1011.9
20260508194717 75 279 3.0 4.0 0.00 0.00 0.00 40 1011.9
20260508194214 75 41 2.0 2.0 0.00 0.00 0.00 42 1012.0
20260508193711 75 51 1.0 1.0 0.00 0.00 0.00 39 1012.1
20260508193208 75 14 2.0 2.0 0.00 0.00 0.00 39 1012.2
20260508192704 75 317 2.0 4.0 0.00 0.00 0.00 37 1012.4
20260508192202 74 274 3.0 3.0 0.00 0.00 0.00 40 1012.5
20260508191659 74 341 1.0 2.0 0.00 0.00 0.00 39 1012.6
20260508191155 74 52 0.0 1.0 0.00 0.00 0.00 42 1012.6
20260508190653 74 273 3.0 3.0 0.00 0.00 0.00 40 1012.7
20260508190149 74 16 2.0 2.0 0.00 0.00 0.00 43 1012.7